Theta_e
310 311 311 312 312 312 313 314 314 314 314 313 309 311 301 300 298 302 307 309 307 299 291 293 292 289 293 298 296 297 294 293 295 293 293 291 293 293 292 292 291 293 292 291 290 291 289 291 289 291 291 292 295 296 295 296 295 297 290 290 287 291 286 285 286 290 286 281 285 285 285 289 287 288 289 289 286 288 287 287 287 285 283 280 281 277 283
308 309 310 311 311 311 312 312 313 313 312 311 311 306 301 301 297 297 305 309 306 296 286 287 288 291 295 295 295 297 294 294 291 291 294 292 292 291 291 292 293 292 295 291 289 292 286 292 291 289 291 290 296 294 296 296 294 295 291 290 293 286 286 286 284 284 287 287 285 285 286 287 287 287 288 289 290 290 289 285 284 281 283 284 282 276 283
307 307 307 308 309 310 311 311 312 312 312 312 311 303 303 300 299 298 299 305 303 293 295 292 289 290 291 292 291 293 294 295 294 294 292 295 293 292 290 292 293 292 294 291 291 292 290 287 291 291 290 291 288 293 296 296 294 294 295 294 295 288 286 286 280 278 277 277 279 282 281 282 286 286 287 288 288 287 285 282 283 279 283 285 282 282 288
306 306 306 306 306 307 309 310 311 311 311 311 309 306 302 296 289 294 294 298 297 296 299 294 293 290 290 290 292 293 291 295 295 296 294 294 293 292 291 289 292 291 290 288 288 289 292 288 286 286 287 289 288 286 289 294 296 294 293 292 293 286 286 288 286 285 283 285 288 288 289 286 283 284 285 286 287 289 288 287 284 281 284 283 284 285 286
305 305 305 305 305 306 306 308 309 311 311 310 307 305 304 299 295 288 284 294 294 291 293 292 294 288 293 286 291 289 291 293 293 297 291 296 293 291 290 291 287 287 289 288 288 290 289 289 288 287 288 288 287 286 288 290 290 290 291 292 290 284 284 287 288 288 289 291 290 291 290 287 286 285 284 286 286 285 284 283 282 287 282 279 286 287 285
303 303 303 303 304 304 305 305 307 309 310 310 308 298 303 294 296 297 295 292 285 287 286 290 288 292 293 289 293 290 291 291 289 293 295 294 295 289 289 290 290 290 289 289 285 287 287 287 285 288 288 288 288 288 288 288 291 290 288 289 289 285 284 288 288 287 290 291 291 292 289 288 288 288 287 285 286 285 282 283 287 288 283 282 287 288 286
302 302 302 302 302 303 304 304 304 306 308 309 304 295 302 303 297 298 300 293 293 292 292 293 290 289 291 289 292 289 290 290 292 292 289 290 288 291 286 289 291 291 292 288 286 287 283 284 287 286 287 287 286 285 287 289 288 289 288 288 287 286 285 288 289 287 287 288 289 290 289 285 284 286 287 288 287 285 285 285 287 287 286 288 288 289 288
301 301 301 301 302 302 303 303 303 304 305 307 300 298 295 296 297 293 298 297 295 294 293 293 291 288 290 287 288 290 290 290 293 293 291 287 288 292 288 291 293 293 291 289 286 288 289 289 287 289 287 287 286 286 288 286 285 286 286 288 287 287 284 289 287 285 285 287 289 289 288 286 284 286 287 287 287 287 287 286 286 287 286 287 287 286 285
300 300 300 301 301 301 302 302 303 303 304 299 298 298 302 301 304 302 296 291 293 294 293 291 290 288 289 288 288 291 290 290 293 293 296 293 290 289 288 291 291 290 289 289 288 291 291 291 291 292 289 286 289 286 287 290 284 285 285 286 285 287 284 288 286 283 282 286 286 287 287 285 283 283 285 286 286 285 286 285 287 285 283 285 285 283 284
300 300 300 301 301 300 300 301 301 302 303 298 298 294 303 302 303 303 299 291 294 291 293 292 291 286 289 290 289 291 290 293 293 289 295 296 296 295 293 293 291 290 288 287 290 293 293 293 294 295 296 293 291 294 292 293 289 286 285 287 285 285 285 284 284 280 280 285 286 285 285 283 279 281 285 287 288 289 289 290 291 290 289 285 283 284 290
300 300 299 300 300 300 300 300 300 301 303 296 294 294 297 294 293 295 294 285 291 294 293 291 289 290 293 292 291 294 293 293 293 289 289 296 295 298 296 293 291 289 290 293 297 297 296 296 295 295 293 292 291 291 292 292 292 289 287 285 285 285 285 284 286 279 280 284 284 285 281 274 276 288 291 291 288 288 287 287 289 291 291 289 291 291 294
299 300 300 300 300 300 300 300 299 300 301 300 300 295 297 297 294 294 289 284 285 293 291 289 290 291 292 293 293 292 292 292 292 295 291 294 296 297 296 294 293 287 296 300 297 295 294 294 293 293 291 290 290 291 291 290 291 292 292 287 285 284 284 283 285 281 280 283 281 278 273 275 286 293 293 292 292 291 289 290 291 292 292 292 291 292 292
299 299 299 299 300 300 300 299 299 299 299 302 299 292 297 299 293 289 288 285 282 287 285 288 294 294 294 294 294 293 294 295 296 296 295 294 293 294 295 294 292 294 299 296 297 293 287 287 288 288 288 289 289 289 289 288 288 291 291 292 288 285 284 284 283 283 280 278 279 273 273 284 287 290 292 293 292 291 290 288 290 291 292 292 291 292 293
299 299 299 299 299 299 299 299 299 299 299 299 297 295 298 297 291 288 287 283 282 289 288 287 289 288 290 292 293 294 295 294 295 296 293 295 294 294 296 296 297 299 297 298 293 291 287 287 284 285 283 285 285 284 286 288 289 288 288 289 291 288 286 285 280 285 277 278 278 278 285 283 286 287 289 290 287 288 286 282 286 292 292 292 291 292 292
298 299 299 299 298 299 299 299 299 299 299 299 299 297 296 296 295 290 289 287 279 283 287 280 287 290 290 290 292 291 291 292 292 291 295 297 295 297 298 299 298 297 297 294 288 289 288 286 281 280 282 282 276 280 287 282 288 290 290 289 290 290 285 286 282 280 284 278 277 277 277 274 281 289 292 295 294 294 293 288 285 293 293 294 292 291 291
298 299 299 299 298 298 298 298 298 299 299 299 296 297 296 298 297 294 289 285 283 277 282 289 287 284 283 285 288 287 287 289 290 291 290 290 292 295 298 299 296 297 294 293 289 287 286 283 280 282 279 281 284 283 278 285 282 287 290 289 289 289 289 287 284 280 283 279 276 275 274 277 287 288 292 294 295 293 290 287 282 291 293 294 293 292 292
298 298 299 299 298 298 297 298 298 298 298 297 294 295 292 299 295 292 288 285 284 279 287 286 286 287 285 284 287 287 289 287 289 286 286 288 290 292 291 291 291 295 293 291 287 286 283 283 284 284 285 286 282 281 285 283 279 282 285 287 286 285 285 284 281 279 281 280 278 276 281 280 287 291 292 293 293 293 289 278 279 291 293 294 294 292 292
299 299 298 299 299 299 298 297 298 298 298 298 295 292 292 297 296 295 289 285 280 280 285 287 285 283 283 285 284 286 288 287 289 290 288 289 290 288 289 290 290 291 296 289 286 285 282 283 281 281 281 288 286 286 280 284 281 280 282 281 281 282 282 283 278 280 280 281 278 281 282 287 291 291 293 291 293 291 281 276 285 293 294 295 295 293 293
298 299 299 299 298 297 298 298 297 297 298 298 297 294 292 295 295 293 288 285 283 278 288 290 290 286 288 291 285 287 288 287 285 281 281 284 287 288 289 288 292 289 290 287 287 284 282 282 286 285 282 284 287 280 286 284 282 287 285 281 281 281 282 282 283 280 279 280 278 278 283 288 293 293 292 291 289 280 279 289 296 295 294 295 295 294 294
298 298 299 299 298 298 298 298 298 297 297 298 296 291 292 297 296 294 288 282 284 281 285 285 287 284 288 285 282 282 283 285 286 283 282 280 287 286 286 286 290 290 288 289 283 286 285 281 284 286 283 284 286 288 285 286 290 286 285 287 284 282 282 277 280 282 282 280 278 277 274 286 294 292 288 290 285 286 294 295 295 295 294 295 295 294 294
297 297 297 298 298 298 297 297 298 298 298 298 296 291 289 294 294 295 294 288 284 280 281 288 288 287 288 287 288 288 286 282 284 282 284 285 286 284 276 282 281 282 283 287 282 284 287 284 286 285 287 287 286 288 282 284 286 290 289 286 286 289 283 280 283 285 279 278 276 276 284 290 294 292 286 289 291 295 296 295 294 296 296 295 295 295 295
297 298 298 298 297 297 297 297 298 297 297 296 295 293 288 292 295 295 295 292 285 282 283 289 289 287 288 289 289 289 287 286 288 289 284 281 285 284 283 283 282 284 285 286 284 285 287 286 288 285 284 285 287 285 286 284 281 287 290 289 282 289 288 287 284 287 285 281 285 289 291 293 295 294 294 295 295 296 296 296 296 296 296 296 295 295 296
298 297 297 298 298 298 297 298 298 297 297 298 296 291 288 291 292 293 293 286 288 288 289 288 290 289 290 291 292 292 291 292 290 288 287 282 279 282 281 282 281 287 286 287 283 282 282 282 279 284 282 284 284 283 285 286 284 287 285 290 290 294 295 294 292 289 293 294 293 295 293 293 293 296 296 296 296 296 295 294 294 296 297 297 296 296 295
297 297 298 298 297 297 296 297 297 297 297 298 296 290 289 291 291 291 288 287 284 281 284 286 283 279 282 283 288 291 291 290 290 290 292 289 279 278 282 284 285 285 284 287 289 283 284 284 282 284 278 282 285 280 278 279 283 286 285 286 290 292 294 293 289 291 289 284 294 293 293 294 293 295 296 296 296 297 297 295 295 296 296 296 296 296 296
297 297 297 296 297 297 296 296 296 296 297 296 295 295 293 290 292 290 286 280 280 279 274 278 280 285 288 290 291 288 289 292 294 293 292 291 287 282 279 285 291 286 285 287 288 285 285 280 281 281 277 284 286 277 285 281 280 288 282 285 287 286 290 285 287 288 286 287 292 294 295 295 296 295 294 294 295 296 296 297 297 297 296 296 296 295 292
297 296 295 296 296 296 297 296 296 296 297 296 295 290 287 287 291 292 289 287 286 283 275 274 279 286 288 286 285 287 291 290 290 291 291 291 291 290 288 288 288 291 289 288 285 281 279 280 280 280 279 279 289 280 280 283 283 286 283 282 286 286 287 281 285 284 285 288 289 291 293 293 294 295 295 296 296 295 296 296 295 295 294 294 294 294 293
297 297 297 296 296 296 297 296 296 295 297 297 295 292 290 291 291 289 286 285 281 276 278 275 281 279 280 281 287 288 288 288 288 287 287 289 289 289 288 286 284 283 282 281 283 282 281 279 279 276 280 279 286 282 284 282 282 281 281 285 290 286 282 287 286 282 282 284 287 290 286 286 292 295 296 296 295 295 294 294 293 293 293 293 293 293 294
297 295 296 297 296 295 296 296 296 296 297 296 294 293 290 287 288 290 289 288 283 277 278 277 277 277 282 278 285 287 287 287 287 286 286 286 286 285 283 282 282 281 280 280 277 278 277 276 275 280 281 282 281 279 285 285 285 282 282 284 287 284 285 285 282 282 281 288 291 292 292 291 293 294 296 296 296 295 294 293 293 294 295 295 294 292 292
296 296 295 296 296 296 296 296 295 296 297 295 290 287 287 290 290 290 290 290 288 282 280 280 283 280 275 279 286 282 286 286 286 285 285 285 284 284 283 283 281 282 282 281 280 278 276 276 280 277 276 283 280 276 279 274 275 275 279 287 290 290 291 289 288 288 289 291 291 291 290 289 291 293 294 295 296 296 295 295 296 295 295 294 294 294 293
295 296 296 296 296 296 295 294 296 296 296 292 286 282 280 283 289 289 291 290 288 285 278 275 272 276 284 281 278 282 283 285 284 284 283 283 283 282 283 282 282 283 282 280 278 274 277 278 279 281 282 285 277 277 276 274 273 275 281 283 284 286 286 286 288 287 286 291 291 291 291 291 293 294 294 295 295 295 294 295 295 295 295 295 294 294 294
295 295 295 296 296 296 295 295 296 295 294 285 281 277 276 275 284 291 292 291 290 285 279 279 275 282 279 278 280 280 282 283 283 282 282 283 282 283 284 283 282 283 279 279 279 278 280 275 276 278 282 282 280 276 274 274 272 274 279 281 282 283 283 284 286 287 286 286 287 287 287 288 290 290 290 291 293 294 294 294 294 293 294 293 293 293 293
295 295 294 295 295 295 295 295 294 295 291 284 282 280 282 283 288 289 291 290 289 283 279 275 275 275 274 278 279 281 283 284 283 280 282 284 281 283 282 283 280 283 281 278 279 278 276 278 278 277 277 281 281 276 277 275 272 273 280 280 282 283 284 284 284 286 286 287 286 284 284 286 287 286 285 289 290 291 292 292 293 294 293 293 295 295 293
295 293 294 294 294 294 295 294 295 293 289 289 292 293 293 293 294 293 292 289 285 280 282 277 272 275 273 274 273 273 278 278 277 278 277 284 278 281 278 282 282 281 284 280 275 275 279 279 279 276 279 283 278 276 275 273 275 279 280 281 282 283 284 285 285 286 286 287 286 282 281 283 285 287 288 288 288 288 289 289 290 291 291 290 290 290 291
295 294 294 294 294 294 294 294 294 292 289 285 283 285 289 293 293 292 286 283 280 279 278 274 271 272 272 276 272 277 282 277 275 279 274 279 278 282 277 280 280 276 279 277 278 279 277 280 276 277 279 277 280 276 272 275 280 279 280 281 282 283 284 284 284 284 285 286 287 287 287 287 288 288 288 288 288 289 290 290 289 288 288 289 289 290 291
293 293 293 293 293 294 294 292 286 286 282 282 283 286 290 293 293 293 287 280 274 275 275 273 275 268 269 269 269 274 279 275 275 277 275 275 283 278 278 276 276 275 275 284 277 277 276 277 280 276 273 278 276 271 274 276 278 280 280 281 282 283 282 281 283 284 283 283 284 284 285 285 284 283 284 285 285 286 286 287 287 288 287 288 289 290 290
294 293 293 293 292 290 286 289 286 284 281 282 283 290 292 293 294 292 289 285 282 277 275 273 274 269 271 268 268 270 279 273 275 276 274 275 274 275 277 276 271 275 279 278 274 277 275 280 278 271 278 274 271 275 277 279 279 280 281 281 283 283 280 277 272 272 274 275 276 278 280 282 283 282 283 284 285 286 286 286 286 287 286 287 287 289 289
293 292 293 290 287 286 281 281 286 284 282 285 288 293 292 290 287 286 283 283 283 283 277 272 269 270 272 272 272 272 274 271 278 270 271 272 271 272 272 270 270 276 276 272 273 272 276 282 275 271 271 270 272 277 278 279 278 278 279 279 275 270 270 271 271 271 269 270 272 274 275 274 273 274 275 276 278 280 281 281 283 284 284 285 286 287 287
290 289 284 282 281 276 275 276 279 283 290 290 292 285 281 282 278 277 280 278 281 281 276 277 272 275 275 272 269 278 276 272 274 270 267 269 273 268 272 273 273 275 268 271 273 279 276 274 272 271 271 276 278 278 278 279 279 277 270 268 268 268 267 267 268 268 267 267 268 270 270 269 270 271 272 273 275 275 277 279 281 283 284 285 285 286 287
287 282 281 280 278 275 276 276 285 291 288 287 283 278 275 276 276 273 274 275 276 273 277 275 272 277 275 273 274 281 277 273 270 265 266 273 271 265 269 267 272 274 267 269 272 282 270 271 272 272 270 274 275 278 276 270 269 268 267 266 265 265 266 265 266 266 266 266 267 267 267 267 267 269 271 271 272 274 276 277 278 280 281 282 284 285 285
281 278 279 279 277 279 285 286 292 288 285 278 274 274 270 272 271 267 272 269 269 272 276 271 277 276 276 273 272 272 281 274 269 269 271 270 277 268 270 269 267 269 264 266 268 279 270 266 270 269 269 273 276 270 263 266 265 265 264 264 264 264 265 265 265 265 266 265 266 266 266 267 268 268 268 268 269 270 271 274 276 278 279 281 283 283 284
279 278 278 276 279 282 284 285 281 278 277 274 273 271 269 268 268 266 268 265 265 266 270 272 275 273 276 276 276 272 279 277 271 271 269 268 275 273 266 265 273 266 263 265 272 272 268 268 268 268 269 274 268 262 261 261 262 262 262 263 263 263 264 264 264 264 263 263 263 263 264 265 265 265 266 267 267 268 269 271 272 274 277 278 280 282 284
281 281 281 283 283 282 282 279 277 275 275 275 271 268 270 268 268 265 267 265 265 265 267 269 267 269 270 274 274 275 273 273 271 275 271 267 275 270 265 267 270 266 263 271 271 265 267 264 266 267 273 262 258 259 259 259 259 260 260 261 262 262 262 262 262 262 263 262 262 262 262 263 263 263 264 265 266 267 268 269 270 271 273 276 278 280 282
289 286 285 281 281 279 279 274 277 275 269 269 267 264 267 264 266 265 263 267 264 265 267 270 271 277 274 274 271 271 273 278 273 272 271 268 276 270 265 266 265 263 268 268 267 266 265 265 265 269 265 258 258 257 259 258 259 259 260 260 261 261 261 261 260 260 261 261 261 261 261 261 262 262 263 263 264 264 266 268 270 271 272 274 277 279 281
284 283 278 277 275 276 276 267 275 268 268 267 265 263 265 262 264 261 259 263 263 265 269 269 270 271 269 270 269 273 271 274 279 270 268 270 269 266 266 262 265 269 269 266 265 264 266 268 270 266 258 257 257 257 257 257 257 258 258 259 259 260 260 260 260 260 260 260 260 260 261 260 260 261 262 262 263 263 264 265 268 270 272 274 277 279 281
278 275 274 272 269 273 270 265 270 267 263 265 269 263 263 262 265 265 266 267 268 267 269 268 268 268 268 270 268 269 275 270 274 268 266 268 264 265 262 263 264 265 263 263 264 266 264 266 265 254 257 254 257 256 257 256 257 256 256 257 258 258 258 258 258 259 259 259 259 259 259 260 260 260 260 261 263 264 264 265 268 271 273 275 277 280 281
275 273 272 268 265 269 267 264 259 256 262 267 267 266 265 267 266 266 262 260 263 264 265 265 265 267 268 269 269 269 268 267 266 265 266 267 263 262 267 266 264 261 262 263 261 262 264 267 257 254 255 255 255 255 255 255 256 257 256 255 256 256 257 257 258 257 258 258 259 258 259 259 259 260 260 262 263 265 266 267 271 273 275 276 277 279 280
275 275 271 269 267 267 264 262 263 262 261 262 262 262 265 263 260 260 258 258 260 261 262 262 263 267 266 267 267 267 266 266 264 267 265 262 261 265 272 264 261 261 259 259 261 262 266 258 253 255 254 255 254 254 254 255 255 255 255 256 256 256 257 257 257 257 258 258 258 259 259 259 260 261 262 262 265 269 271 272 271 272 272 273 274 273 272
269 273 271 266 265 265 262 263 260 260 259 259 259 259 261 262 261 259 257 257 258 261 258 261 264 265 266 269 268 266 264 265 264 265 267 263 267 261 260 260 261 263 263 260 263 261 255 254 253 253 254 254 254 253 253 254 254 254 255 255 255 256 256 256 257 257 258 258 258 259 259 259 260 261 262 266 269 270 268 268 270 270 271 271 271 271 270
270 268 266 264 265 264 263 262 261 263 259 256 257 258 259 261 259 257 256 257 257 257 258 260 264 266 265 267 266 266 265 268 263 264 268 264 260 260 260 257 258 259 263 258 256 251 252 253 253 253 253 253 253 253 254 254 254 254 254 255 255 256 257 257 257 258 258 259 259 259 259 259 260 262 266 267 266 266 267 267 267 267 268 268 269 268 267
273 270 269 265 264 264 263 263 264 263 258 258 258 257 257 257 256 255 256 254 255 255 260 264 266 266 267 266 263 265 264 266 263 266 263 261 261 260 261 259 261 262 259 249 250 251 252 253 253 251 252 252 252 253 253 253 254 254 255 255 256 257 257 257 257 258 258 259 259 258 259 260 261 264 266 265 265 265 264 264 264 264 264 265 265 265 264
277 271 265 263 265 265 262 263 263 261 260 256 254 254 254 255 255 254 256 254 254 256 261 263 266 265 265 265 263 261 263 265 261 262 261 262 263 260 261 261 259 246 245 249 251 252 252 252 252 251 251 252 252 253 253 253 253 254 255 256 256 257 257 258 258 258 258 259 259 259 259 260 262 264 264 264 264 263 262 261 261 261 262 262 262 262 262
270 267 263 260 259 259 259 256 253 252 251 251 251 252 253 251 254 253 256 256 255 259 262 262 262 264 263 261 263 263 264 263 263 263 262 263 254 258 259 252 247 246 249 248 249 251 251 252 252 251 251 251 252 252 253 253 254 254 255 256 256 256 257 257 257 258 258 258 258 258 259 260 262 263 262 262 261 260 259 258 259 260 260 260 260 261 261
Wind_Speed
15 14 14 13 14 15 14 14 15 13 14 5 2 4 1 5 7 4 17 17 22 14 11 11 10 12 12 4 7 2 3 6 3 9 5 6 5 4 7 10 8 8 10 4 7 10 8 10 11 4 6 13 16 4 10 9 7 4 2 4 2 4 3 4 10 6 0 3 2 2 2 3 2 9 4 6 13 13 11 9 1 6 4 6 5 7 19
15 16 15 13 13 14 13 14 14 12 10 7 2 6 4 4 3 1 6 18 16 15 11 10 17 13 7 9 12 3 7 8 4 8 11 9 7 12 9 1 14 9 6 8 9 10 8 9 8 4 10 7 3 10 8 17 9 11 9 8 8 4 4 5 3 2 8 5 3 4 1 4 7 6 10 10 6 9 5 4 1 6 17 15 6 14 17
15 15 16 17 16 14 11 11 12 11 12 10 4 3 1 3 2 2 2 8 10 15 10 13 12 15 15 14 16 11 8 4 15 12 9 7 9 4 8 12 5 7 7 10 11 9 18 6 7 14 10 10 5 3 9 17 13 7 2 3 10 7 6 10 8 15 14 12 17 13 6 10 6 4 7 14 17 17 7 9 8 11 15 14 11 17 22
15 15 15 16 17 18 16 12 10 10 9 10 4 3 3 4 3 2 2 6 5 7 5 1 5 11 15 14 15 13 12 6 2 10 15 12 5 7 1 5 2 8 4 9 12 13 10 12 4 5 5 3 1 1 3 9 11 5 5 6 8 3 5 15 17 16 16 20 17 2 9 7 8 9 13 18 20 21 17 8 11 16 5 10 17 23 20
13 14 14 14 16 17 18 18 14 10 8 7 4 5 5 1 8 6 5 2 10 5 6 5 3 5 9 9 4 17 18 13 5 9 9 12 13 3 6 3 4 6 10 14 17 16 14 12 10 11 13 1 1 2 3 3 4 4 2 2 4 1 6 14 21 24 22 22 23 22 10 11 9 9 13 16 18 19 19 16 21 7 6 15 16 25 16
14 14 13 13 13 15 16 17 19 13 9 7 3 7 4 8 4 9 11 12 11 13 16 14 14 11 6 8 5 12 14 13 13 4 11 2 7 10 2 9 14 16 18 18 15 13 17 10 15 17 13 9 2 1 3 6 5 6 1 1 5 5 10 12 14 21 21 22 24 24 14 12 13 11 13 15 18 17 23 26 21 10 14 20 19 17 17
16 17 17 16 14 13 14 15 16 17 16 8 3 7 4 8 3 3 7 10 7 21 24 23 23 16 19 6 12 14 15 18 17 12 3 3 3 13 11 16 22 24 24 14 11 12 7 11 14 10 11 15 6 3 1 4 3 6 4 3 3 2 12 13 17 19 16 17 20 19 20 7 7 11 10 14 16 23 24 21 16 22 24 18 11 19 24
17 15 15 17 17 12 11 13 14 15 18 11 7 7 6 6 5 5 6 10 8 16 17 15 15 18 17 13 13 13 18 22 17 9 9 8 9 10 16 20 20 19 21 17 15 15 17 16 14 7 18 4 4 10 10 1 2 1 5 3 2 7 11 13 15 15 16 21 22 23 20 17 18 15 13 17 26 24 18 16 20 20 18 16 16 13 18
18 19 19 18 17 14 12 12 11 13 12 7 5 5 7 5 7 4 4 7 8 8 14 14 16 13 13 16 14 15 21 21 19 20 14 20 13 12 25 26 24 17 13 12 18 21 25 23 25 25 8 11 7 6 2 8 4 3 2 2 1 6 9 8 8 11 14 16 23 25 17 14 14 14 19 25 25 21 16 18 16 10 17 18 14 16 19
19 17 15 17 18 18 16 14 11 10 8 5 5 7 4 6 5 7 7 11 8 12 8 14 11 19 15 17 24 18 26 24 19 16 13 19 22 20 20 22 17 11 10 19 23 27 28 29 28 22 11 6 4 11 6 8 9 5 8 4 4 6 6 9 10 14 15 17 15 11 8 4 5 15 28 36 29 17 24 24 19 19 16 13 15 18 20
18 20 19 15 15 17 17 18 15 12 4 3 5 6 7 6 7 5 4 7 4 11 10 12 18 12 12 22 21 20 22 20 20 20 9 14 23 22 19 16 14 14 20 26 25 18 14 13 13 8 8 9 9 8 10 12 14 12 10 4 4 8 12 12 7 13 11 16 16 5 4 14 19 23 24 17 18 26 26 21 22 19 13 14 17 20 20
18 17 18 18 18 17 16 16 17 15 6 4 2 4 5 6 6 3 4 8 6 4 10 11 12 8 19 19 20 23 21 23 23 22 27 16 15 17 20 17 15 17 15 13 10 7 5 5 3 0 5 8 13 16 16 17 16 15 15 13 11 12 12 14 11 12 14 11 3 4 15 19 19 1 6 20 25 28 28 27 23 18 17 21 25 27 28
19 19 18 17 17 18 19 18 17 16 14 3 4 6 4 2 3 5 6 6 8 4 8 8 9 14 15 18 20 21 19 23 24 25 21 19 18 10 11 17 19 22 9 5 7 7 3 6 5 6 7 6 9 13 17 18 22 22 15 16 13 14 16 12 9 10 1 2 9 12 18 5 5 7 16 18 22 21 20 20 17 19 20 25 25 26 25
19 19 20 19 19 18 17 17 18 18 17 11 6 5 4 2 3 4 3 5 7 4 6 9 9 14 15 17 17 17 16 20 19 19 22 16 20 22 14 11 16 10 7 7 6 7 2 2 10 5 7 6 5 9 16 23 26 23 23 20 22 22 14 10 11 10 13 12 15 20 4 10 7 10 15 19 19 17 17 14 17 18 18 23 21 18 21
19 19 19 19 19 19 19 18 16 17 18 16 6 5 5 4 3 3 3 6 10 9 7 9 3 7 8 10 11 14 14 15 13 17 19 16 17 14 18 15 4 5 8 6 4 4 10 3 8 8 4 9 10 12 7 9 10 26 26 24 21 18 19 14 14 9 13 15 12 8 8 16 17 24 23 18 13 13 6 10 10 8 23 25 18 18 25
20 19 18 18 19 19 19 19 18 17 15 16 10 7 7 6 5 5 5 6 7 10 7 6 3 6 8 9 9 12 10 8 11 10 10 11 13 15 15 11 5 9 5 7 5 7 6 12 10 11 12 12 8 3 6 7 3 6 23 23 22 19 18 15 17 10 10 11 10 13 14 16 11 22 26 29 16 7 9 3 11 13 27 25 20 23 24
19 20 20 19 19 20 20 18 17 18 17 17 9 7 7 5 5 5 4 4 7 12 11 16 11 6 7 8 7 9 8 10 7 9 7 9 11 11 4 2 1 12 12 11 6 7 7 11 9 12 10 4 7 7 5 6 6 2 3 14 25 20 14 12 16 12 13 15 11 13 8 9 11 17 21 15 7 12 9 13 13 21 32 24 22 21 19
20 19 21 21 19 19 19 21 19 17 17 16 9 7 6 5 6 4 4 7 9 11 9 13 16 10 8 5 7 5 6 5 5 5 9 7 5 2 4 4 7 6 13 15 6 9 11 11 15 12 16 9 2 2 13 7 7 9 10 12 12 15 14 13 23 19 22 22 14 10 8 5 7 15 15 8 13 13 12 21 12 17 20 17 17 18 20
21 20 21 21 20 21 20 19 21 20 18 17 9 7 8 8 8 8 7 7 7 9 3 7 3 8 8 7 6 6 3 7 9 7 8 8 1 6 6 4 5 8 7 12 9 10 9 11 6 7 10 8 7 10 4 11 11 6 9 8 4 9 10 10 15 17 15 14 17 18 13 7 10 17 11 12 6 10 19 17 19 18 14 14 13 15 14
22 22 22 22 22 22 21 20 20 20 20 20 12 7 5 4 6 8 7 7 6 12 9 11 5 9 6 10 9 9 9 9 5 7 6 8 4 12 8 7 3 3 6 7 13 6 8 13 12 5 12 11 10 3 10 17 9 14 7 17 15 12 11 13 15 12 12 9 12 8 15 7 23 13 4 11 14 19 15 19 14 14 16 17 17 15 16
23 24 23 24 21 22 23 22 22 21 20 18 12 5 8 8 9 10 10 10 7 11 11 11 11 13 10 12 11 10 10 13 10 9 4 6 3 4 4 3 6 6 4 6 14 10 7 11 12 11 4 10 8 9 16 10 15 17 14 15 16 16 11 5 9 10 10 16 13 12 15 16 21 19 17 16 26 20 22 19 18 14 14 15 16 15 15
23 24 23 24 24 23 22 23 22 20 20 22 17 7 8 7 6 7 7 7 8 9 6 2 2 7 9 10 10 9 11 12 14 10 8 11 4 7 6 12 10 2 3 4 4 3 1 3 2 4 6 5 2 17 13 15 19 7 18 15 14 15 18 14 14 17 14 11 14 18 14 17 17 23 21 22 26 27 24 20 18 17 16 14 14 15 14
22 23 24 23 22 24 24 23 21 22 22 19 14 7 9 6 5 5 3 6 5 5 4 8 7 7 8 13 13 13 12 11 13 12 10 8 8 6 8 7 11 3 3 1 6 10 9 9 9 5 10 3 5 7 7 12 10 8 14 15 21 18 26 21 17 17 14 18 13 8 13 15 16 21 23 27 23 19 18 21 20 18 18 16 15 12 11
25 24 23 21 23 25 24 23 22 23 24 21 15 5 7 8 5 4 3 5 5 6 6 7 8 6 9 15 10 5 8 10 13 14 9 9 10 10 7 8 7 4 4 6 3 5 4 5 5 5 11 6 11 11 8 8 7 5 9 6 6 12 11 14 17 13 14 13 11 21 20 19 21 18 22 21 19 18 16 16 16 18 19 19 17 17 16
25 23 24 25 23 22 23 25 25 23 20 22 18 10 4 1 4 7 7 6 4 5 6 2 8 12 11 4 3 6 10 9 5 8 9 10 13 11 12 9 6 6 11 9 4 6 3 8 6 5 10 1 2 13 3 11 10 1 7 4 5 6 7 11 8 13 13 12 9 13 14 16 14 15 17 16 18 20 19 18 17 16 16 16 18 15 9
25 26 26 24 24 23 22 23 25 24 23 24 19 7 6 9 8 8 6 6 4 3 5 6 9 4 4 4 9 14 9 3 6 9 12 13 14 15 15 13 11 7 8 4 5 7 7 9 5 8 9 6 7 9 9 9 10 5 12 13 13 11 9 8 4 11 13 20 22 19 20 16 16 14 9 8 8 10 14 16 16 15 16 16 14 10 12
25 24 25 26 25 24 22 23 25 24 23 22 12 8 8 5 6 10 8 7 5 5 6 8 4 1 1 7 8 2 2 5 5 5 7 8 8 8 9 11 13 9 8 8 6 7 5 7 8 10 7 8 7 11 10 11 11 10 12 11 8 10 12 11 10 12 12 9 10 9 12 10 13 16 13 8 10 14 15 12 11 14 15 15 19 20 17
24 25 25 24 24 23 21 22 24 23 22 22 15 10 6 7 8 10 9 8 10 8 3 3 2 4 2 1 9 7 3 6 6 8 10 13 13 10 10 11 11 10 6 7 8 6 5 10 10 6 8 6 9 13 10 12 10 14 12 9 9 13 12 10 11 11 15 12 15 9 14 15 16 16 15 15 10 8 10 12 14 15 16 18 19 19 18
26 25 24 24 22 23 23 24 23 22 21 17 5 1 3 7 7 10 11 9 8 8 9 7 5 3 5 3 3 1 9 7 8 9 9 9 10 9 9 9 10 9 9 7 8 7 9 10 8 9 6 3 9 6 5 14 10 16 12 10 11 8 11 14 16 20 21 17 16 11 12 15 17 17 17 17 15 17 20 19 18 18 17 17 17 18 20
27 25 25 23 22 21 23 22 21 20 19 6 4 1 2 3 9 11 12 11 11 7 4 4 5 3 1 1 4 8 7 8 9 11 11 11 11 10 10 10 10 10 8 7 5 9 7 8 7 10 10 6 10 4 12 9 12 15 9 13 18 20 24 20 17 17 18 12 15 14 16 21 19 20 16 15 15 17 19 19 20 21 19 16 17 17 17
25 24 23 22 21 19 20 20 19 20 17 2 3 2 1 4 2 7 14 10 9 6 3 2 6 3 4 3 4 7 9 10 9 10 13 11 11 11 9 7 8 8 8 7 7 11 9 7 3 8 7 12 10 9 11 12 15 13 12 16 17 21 21 19 19 19 20 17 17 19 17 19 19 20 19 17 19 19 19 17 19 18 20 17 17 17 16
22 22 22 22 21 20 20 21 21 18 7 7 7 6 3 2 1 3 9 9 9 5 4 4 4 2 3 2 3 3 7 12 6 2 3 5 7 9 10 9 8 8 8 8 8 4 5 8 11 10 10 9 10 8 10 14 18 16 15 20 20 20 19 19 21 20 20 19 20 21 19 19 17 17 18 15 19 19 21 22 22 23 23 21 20 18 19
20 21 21 21 19 18 16 18 20 13 7 8 13 15 12 8 7 6 9 9 6 2 3 3 4 3 2 5 1 3 3 2 1 2 4 5 4 3 3 5 7 6 7 7 3 5 6 11 8 10 10 11 10 7 12 16 14 16 18 20 20 19 20 19 19 17 18 17 15 19 20 20 21 21 22 22 21 23 23 25 24 23 22 22 24 23 21
18 17 17 18 18 17 17 18 16 7 4 1 1 7 9 14 13 7 5 5 3 0 1 3 2 4 5 2 2 4 9 5 5 5 5 3 2 4 4 3 4 4 4 9 5 8 2 6 10 10 6 9 7 12 13 11 14 19 19 21 20 21 20 20 18 18 16 17 16 18 20 19 18 18 17 18 18 17 18 18 16 18 20 20 22 21 21
17 17 17 17 18 16 12 4 0 3 4 4 5 4 5 15 17 14 12 3 3 1 1 2 1 0 1 1 3 5 3 3 6 4 6 3 4 5 3 3 2 7 5 8 5 7 8 7 6 10 10 8 11 10 9 14 17 18 17 16 18 19 20 20 17 14 14 15 15 15 16 17 19 19 18 20 21 21 21 19 17 19 20 21 21 21 18
17 15 13 8 3 2 2 4 3 2 3 5 3 5 14 16 17 12 11 8 2 3 4 3 4 4 3 6 3 4 4 3 2 0 3 1 1 1 3 2 4 6 4 5 8 7 9 6 10 14 8 12 10 9 12 13 19 18 18 19 17 14 12 12 12 14 13 12 14 15 17 17 15 17 16 17 17 16 18 19 18 17 19 20 21 21 19
15 13 8 13 5 3 1 2 2 4 4 4 5 5 6 8 6 6 3 1 1 0 2 2 3 6 8 7 0 5 1 6 4 0 1 2 3 0 1 0 6 4 3 2 6 8 11 10 9 11 10 13 13 13 15 17 18 18 18 13 10 11 10 11 13 14 15 16 17 12 10 12 16 15 15 16 17 19 21 22 21 20 21 22 21 19 19
6 12 6 1 3 2 1 2 3 4 5 8 10 5 4 4 1 1 2 2 2 4 3 3 6 5 1 2 9 4 1 5 3 2 1 2 1 3 1 4 3 3 7 7 7 9 5 3 6 10 13 12 15 17 19 18 12 9 10 9 8 10 9 9 11 11 13 19 20 21 19 20 19 16 14 18 19 20 20 20 20 21 21 21 21 20 19
9 2 3 1 1 2 3 1 2 5 7 4 3 2 1 0 1 1 2 1 0 3 3 5 7 8 9 9 9 7 5 1 1 1 1 3 1 5 0 2 4 4 5 5 7 6 7 5 7 8 11 9 13 15 8 10 8 7 7 7 6 8 9 9 6 7 7 8 11 15 12 14 16 21 20 19 19 18 19 20 21 21 22 23 23 22 23
2 2 3 3 4 2 2 3 3 6 2 2 3 2 1 0 2 2 1 1 2 3 2 6 6 8 11 14 12 8 5 4 5 5 4 2 1 3 3 0 3 3 6 6 5 5 6 7 5 6 8 5 7 5 9 9 9 7 8 10 12 11 9 9 8 6 9 13 14 16 17 16 15 16 18 20 20 22 24 23 23 22 22 23 25 24 24
1 2 2 3 3 2 2 2 2 3 2 1 1 1 2 1 2 1 1 1 2 5 2 2 3 5 6 9 7 9 2 3 1 2 2 2 2 4 0 3 3 2 3 5 4 1 2 5 6 8 11 7 4 7 11 8 10 12 9 11 13 12 13 14 13 9 9 12 13 14 15 16 18 19 18 20 21 21 22 23 25 27 29 27 28 27 23
4 3 3 3 3 2 2 1 1 2 1 1 2 2 2 1 1 2 2 5 6 2 3 3 3 4 4 8 8 3 3 1 2 1 2 2 2 3 3 1 1 4 5 4 2 0 0 4 7 11 6 3 3 8 9 13 13 15 17 14 16 14 16 17 19 17 10 12 15 17 17 18 21 20 18 16 18 20 23 24 26 29 30 29 28 27 25
11 9 4 2 1 1 1 1 2 2 3 2 2 2 2 3 4 5 3 2 1 1 3 1 2 1 1 1 1 2 3 1 2 1 2 4 0 2 1 2 1 3 5 1 0 3 6 9 9 9 3 3 8 8 10 8 12 14 14 13 12 15 16 17 18 21 20 14 15 18 18 20 21 21 22 23 25 27 26 25 27 27 27 26 25 25 25
3 2 3 1 1 2 2 4 1 3 2 2 4 7 4 1 3 1 0 3 1 1 2 0 2 1 2 2 1 0 1 1 2 1 1 1 1 2 1 2 4 4 2 0 1 6 10 7 8 3 2 5 5 9 12 13 13 15 16 13 13 14 17 20 19 20 23 19 12 12 16 19 21 25 24 20 18 22 26 27 26 25 26 25 25 25 24
3 1 1 2 0 1 3 2 2 2 4 4 3 3 3 4 2 4 6 1 1 1 1 1 1 0 2 2 0 2 1 2 2 2 3 2 0 1 1 3 2 1 1 7 4 7 3 10 0 4 8 12 13 12 11 11 11 12 16 20 16 16 18 21 22 19 20 20 22 22 22 21 19 22 24 26 24 20 21 25 26 23 22 21 21 22 22
1 3 3 3 2 1 2 2 1 1 3 2 3 4 3 5 3 2 3 3 0 2 1 2 3 1 2 1 2 2 1 1 0 2 2 1 1 3 3 0 2 1 4 4 7 11 14 9 4 5 10 12 11 14 15 12 14 13 13 17 20 19 19 18 20 20 19 20 24 24 21 20 21 22 25 29 24 20 19 19 21 20 20 19 20 22 20
1 1 1 0 1 1 2 2 4 4 1 2 0 0 1 2 2 3 1 3 1 3 3 3 2 2 1 2 1 2 0 0 1 3 2 0 2 2 1 1 5 3 6 9 9 10 7 2 3 6 10 12 15 15 15 15 14 15 15 16 18 19 19 19 19 19 21 20 22 22 21 20 21 21 21 22 23 21 17 14 13 12 12 14 12 7 4
2 1 2 1 3 2 4 4 2 3 3 2 1 1 0 2 2 2 3 3 4 3 2 3 1 1 2 1 1 2 1 1 0 4 2 2 1 0 1 2 5 4 4 5 11 1 2 4 10 12 12 10 13 16 17 17 17 17 19 19 20 21 21 21 21 20 21 23 22 22 22 22 21 21 22 22 21 14 10 11 11 10 9 8 5 4 4
2 2 2 2 1 2 0 1 4 2 0 2 2 3 3 3 3 2 4 4 3 2 3 0 0 1 3 0 1 1 3 1 3 3 1 1 2 4 3 4 4 8 4 1 2 4 5 10 10 11 13 15 12 14 14 14 16 18 18 20 21 19 21 20 21 22 23 18 18 20 22 22 22 22 20 17 14 11 11 11 11 10 10 9 7 7 8
2 0 0 1 2 2 0 1 1 2 0 2 3 4 4 3 2 1 4 3 4 4 3 4 3 1 2 1 2 2 3 1 3 1 2 5 4 2 2 8 7 8 2 3 5 9 10 11 11 14 14 15 15 13 16 17 17 18 17 18 18 18 17 21 23 22 21 19 21 23 25 21 19 18 15 12 11 10 10 11 12 11 11 11 10 10 10
0 2 3 5 2 2 1 4 5 4 3 0 2 3 3 2 2 3 6 4 5 2 0 1 0 1 2 2 2 2 2 1 0 4 3 5 1 2 5 12 3 3 5 7 8 11 11 10 10 12 15 16 14 15 15 17 19 19 19 18 18 18 18 18 20 20 20 18 20 22 22 20 18 16 12 10 9 8 10 12 13 12 11 11 12 12 11
1 1 1 3 6 5 4 4 5 5 3 2 1 2 2 0 3 3 5 4 3 0 1 1 1 1 2 4 2 1 3 0 4 0 5 3 3 3 4 2 3 5 9 10 11 8 8 9 9 13 13 15 17 18 19 18 19 18 17 18 19 19 19 19 18 18 17 17 18 18 19 20 19 13 10 9 10 10 10 9 10 11 11 9 11 13 14
Wind_Direction
337 329 327 327 328 328 330 334 334 336 337 316 181 164 211 206 221 356 161 169 154 163 201 184 193 218 235 311 295 268 299 246 227 194 166 207 192 215 212 208 210 232 233 157 207 186 231 175 211 160 216 242 219 173 167 127 155 50 107 39 316 99 168 200 251 292 67 59 101 112 185 171 112 239 245 177 208 196 208 229 263 234 154 218 203 225 266
346 347 338 329 327 329 332 333 335 338 352 321 284 206 231 203 143 195 199 181 166 171 187 199 216 219 258 237 243 205 246 225 240 221 184 184 170 209 212 262 220 240 190 192 222 159 251 205 203 243 218 258 191 150 153 156 179 176 200 167 165 158 211 189 227 264 270 233 135 155 144 191 226 207 198 211 218 212 241 24 88 255 234 234 173 241 258
338 343 351 352 349 337 334 332 329 335 340 349 276 249 192 106 74 83 207 225 201 195 195 212 200 214 218 220 229 227 231 228 237 222 216 220 221 210 235 228 116 219 180 225 234 199 216 258 212 234 216 239 68 254 171 184 194 203 187 171 172 190 164 175 195 222 230 231 234 230 170 206 214 250 191 194 208 209 194 234 211 234 238 208 226 250 251
334 338 343 347 351 351 339 330 330 328 338 349 325 264 253 169 223 167 136 228 265 273 309 30 231 217 222 236 233 232 244 272 274 230 243 219 260 242 8 2 213 223 166 234 231 236 227 228 219 186 230 253 33 191 252 213 201 200 154 164 163 202 190 188 209 217 223 232 247 26 107 126 200 204 188 199 207 208 207 213 220 226 219 201 229 241 261
325 327 334 340 343 344 345 338 331 333 331 352 323 273 238 283 229 141 204 305 252 281 287 254 226 227 200 232 164 228 229 235 304 175 244 211 215 229 202 207 179 217 221 231 241 234 236 227 253 242 240 110 231 95 229 272 299 359 35 218 142 101 217 216 217 223 229 234 244 247 164 201 204 192 203 205 200 209 209 210 231 125 86 247 234 243 259
306 310 316 326 327 331 335 339 339 334 331 336 317 270 199 239 217 184 179 178 191 215 254 235 239 244 215 233 201 236 230 226 238 192 228 55 210 197 217 218 226 229 217 220 234 226 233 213 231 240 252 252 193 239 157 199 176 128 186 303 190 196 227 220 233 236 238 239 246 247 231 218 232 205 195 205 209 206 212 223 224 156 219 238 248 256 254
310 309 309 306 310 322 327 330 336 338 333 331 276 271 236 242 303 274 169 227 180 198 207 208 216 211 216 224 213 230 227 230 219 216 76 161 241 203 231 224 226 229 235 226 237 230 250 244 239 234 246 230 213 241 331 233 89 171 183 154 202 167 234 228 229 245 243 251 255 254 254 231 241 242 220 227 213 213 213 227 214 220 232 239 261 254 263
298 302 313 318 308 303 318 322 326 334 335 324 279 250 266 225 227 248 224 240 186 198 211 218 213 223 209 228 202 217 224 232 232 223 171 216 220 199 228 238 238 232 237 232 231 232 234 244 252 208 226 236 176 230 217 191 5 172 207 166 266 194 232 222 238 248 242 245 248 251 248 256 261 257 256 249 250 250 232 232 235 232 248 264 272 284 276
299 299 299 301 307 302 309 320 322 323 345 303 264 249 231 302 304 326 269 231 227 200 206 207 209 218 207 227 222 227 228 233 229 234 201 216 217 175 213 223 236 231 225 220 234 233 238 235 240 242 175 216 194 204 252 155 133 174 223 216 290 210 248 242 247 245 246 239 243 245 249 244 245 255 253 249 246 242 232 232 222 199 233 234 236 244 247
298 292 297 299 295 295 294 300 312 316 340 299 294 272 299 305 308 294 285 265 161 215 201 212 208 223 203 206 218 212 227 221 220 247 224 224 222 220 214 224 226 232 198 216 223 228 227 230 233 242 220 216 174 209 188 174 198 176 217 186 191 186 227 229 236 248 246 248 248 249 218 192 234 235 239 239 244 252 250 249 246 233 233 240 238 240 237
303 304 293 289 296 295 290 289 293 303 321 292 305 308 337 314 318 319 296 283 193 217 216 219 206 217 200 216 232 221 234 221 221 224 220 204 227 225 227 220 221 227 222 225 226 234 247 252 259 262 235 216 229 229 223 218 221 210 199 187 203 207 220 235 219 245 247 248 254 219 188 225 225 227 240 252 250 243 246 247 246 244 226 240 243 254 259
295 295 300 301 297 292 291 287 285 283 286 255 238 273 296 343 324 293 291 265 267 229 239 242 218 222 227 225 220 227 225 224 228 215 235 229 227 216 222 225 223 245 233 246 83 101 84 88 61 123 218 212 218 230 228 226 230 225 205 205 208 213 215 232 218 235 238 229 91 220 226 231 238 256 216 233 241 248 252 258 260 259 251 248 251 253 252
293 292 291 289 290 293 292 288 282 283 281 259 272 282 299 28 303 308 295 275 270 258 274 256 263 257 246 247 241 235 231 233 232 232 234 236 245 231 210 217 217 237 231 117 123 95 194 229 230 231 239 241 237 233 226 220 226 224 223 220 220 219 217 223 225 218 306 160 204 233 237 232 60 212 236 238 242 246 250 257 255 247 241 245 245 248 256
290 290 290 289 286 285 285 286 290 282 274 272 274 273 280 319 317 300 282 300 274 244 276 287 264 270 273 264 259 258 247 243 242 239 242 232 239 238 232 222 230 229 119 126 139 136 257 165 244 208 222 204 231 228 222 223 221 218 218 214 220 223 222 210 238 200 223 213 217 231 297 325 249 252 235 222 215 211 204 223 235 239 244 248 244 243 253
283 283 284 287 286 285 282 278 276 280 282 275 242 248 260 254 242 245 272 280 285 277 257 255 239 280 287 283 278 271 258 256 248 241 239 243 243 233 238 234 189 138 151 171 189 180 222 192 219 208 202 196 221 234 169 231 210 220 216 212 214 213 217 202 220 215 210 229 232 241 227 241 236 234 246 248 221 223 186 210 248 238 256 245 237 242 250
284 281 281 279 282 280 280 280 279 275 275 282 273 259 240 207 223 241 247 255 287 276 233 211 356 333 302 289 293 285 279 274 256 268 253 238 239 246 244 236 193 156 172 218 172 207 193 223 224 219 224 215 214 218 210 157 219 205 212 216 215 216 221 223 225 229 209 224 224 224 225 232 205 240 240 247 242 126 117 216 251 236 247 248 243 243 246
278 279 278 276 275 277 277 275 274 275 275 273 273 277 276 199 213 228 248 253 234 250 326 313 299 273 287 283 256 246 248 254 259 258 262 240 237 227 250 93 148 184 196 214 192 212 207 225 232 236 245 172 194 216 142 192 164 187 203 209 217 214 211 215 229 224 223 235 225 230 207 244 206 238 252 259 112 141 135 231 234 229 244 243 247 248 245
273 271 274 276 274 273 274 274 271 267 267 265 255 248 244 234 226 228 233 243 259 274 247 254 266 265 256 267 285 312 328 317 276 281 270 293 290 226 207 167 207 252 187 222 166 222 221 220 226 225 238 200 184 144 222 152 192 173 176 191 192 211 216 213 224 224 227 225 244 256 253 244 225 227 238 95 139 139 194 223 224 222 235 237 242 245 240
275 271 271 271 273 273 272 274 275 274 270 267 265 268 251 229 221 219 247 251 251 262 305 316 307 281 281 307 253 257 266 299 307 304 301 304 239 344 293 252 189 217 176 220 206 220 218 230 232 232 245 214 184 224 142 209 214 174 173 111 213 220 203 224 215 225 221 219 225 228 242 216 205 233 204 154 127 211 225 235 234 247 248 247 236 242 239
275 273 270 268 266 268 268 265 265 266 265 262 257 237 240 189 176 187 201 235 239 261 263 262 274 273 277 281 288 285 290 271 238 275 275 271 347 4 338 258 241 164 210 201 229 193 226 226 215 216 229 226 222 162 224 229 198 203 179 189 211 166 191 196 201 218 234 237 236 225 234 141 200 208 160 188 207 232 231 245 239 234 241 247 247 238 246
273 273 271 268 265 262 264 265 268 265 263 262 254 252 253 220 212 212 215 234 251 259 266 258 248 255 255 260 258 253 249 261 284 279 266 284 334 335 227 271 5 335 266 207 231 208 217 236 207 221 205 214 215 199 229 215 226 219 191 210 221 165 215 191 211 178 205 210 201 221 212 212 189 172 207 192 213 219 229 236 248 235 237 239 248 244 243
273 271 269 269 268 264 264 260 256 260 268 267 262 235 252 235 203 207 207 198 227 231 245 271 159 249 262 260 257 247 245 252 251 246 268 282 215 239 289 315 306 286 273 321 315 289 311 336 324 266 239 257 183 232 222 226 235 179 213 208 237 157 215 194 211 192 208 206 212 218 210 218 197 200 216 222 216 221 228 233 237 245 243 237 246 250 247
266 269 272 268 267 270 266 261 261 261 255 255 255 226 238 231 213 226 181 224 219 255 267 268 264 268 274 264 251 246 251 247 253 249 225 236 273 247 239 256 274 208 243 266 301 312 306 299 263 293 299 270 270 305 275 254 265 198 223 203 235 196 214 223 239 231 215 236 216 214 222 222 218 213 220 228 230 221 225 233 244 244 254 252 254 253 244
271 272 267 261 262 264 263 257 256 255 253 250 247 189 230 225 194 137 164 231 232 263 248 233 249 249 232 257 269 230 230 240 239 243 224 202 244 271 252 223 245 275 227 217 200 277 311 302 291 320 286 301 314 280 286 285 265 326 292 273 259 268 264 248 250 252 246 247 185 228 229 222 226 221 229 235 238 240 232 235 237 246 249 255 257 254 250
271 267 269 270 265 260 262 265 257 253 258 262 260 245 231 237 190 185 191 227 209 206 245 238 215 226 232 226 274 286 256 236 223 229 230 220 226 242 261 261 216 265 290 302 324 291 251 283 290 260 270 277 302 281 281 286 279 39 276 298 318 260 28 337 324 309 262 292 330 318 300 269 250 229 236 237 240 243 247 250 249 247 250 252 258 263 266
272 270 269 266 263 261 260 261 261 257 249 248 248 227 183 217 203 192 198 231 248 243 248 248 259 233 144 211 246 239 248 238 206 214 216 215 215 224 246 266 270 262 276 295 316 285 282 279 275 280 288 287 189 240 249 243 271 301 272 269 266 283 323 262 326 285 289 297 290 290 292 298 289 278 265 276 299 285 271 265 267 271 273 275 276 268 265
271 265 262 265 263 260 255 255 257 257 254 252 249 225 226 223 155 173 185 194 221 274 229 245 230 57 259 208 238 276 129 205 211 214 230 222 231 246 258 269 278 281 264 275 254 275 263 252 255 260 250 260 333 291 303 299 290 285 270 273 295 287 256 277 283 274 266 248 282 285 284 283 291 288 291 265 252 271 277 282 278 275 275 273 271 266 254
271 269 266 262 264 263 254 250 253 256 256 257 254 240 181 191 202 198 203 195 191 232 273 259 267 246 169 317 257 245 226 232 227 255 262 271 268 251 242 250 261 264 257 248 270 253 252 268 258 258 256 271 269 261 241 260 261 257 239 246 239 253 264 269 253 252 266 279 276 286 287 286 278 287 297 305 297 265 249 255 263 260 254 256 261 267 267
267 263 261 257 257 261 259 254 252 251 252 253 250 260 195 222 214 206 208 194 203 236 243 264 300 308 260 239 75 301 239 221 233 239 247 246 249 244 242 235 239 248 257 255 250 255 263 262 272 270 249 311 291 287 336 267 248 256 251 261 250 246 246 243 258 270 271 277 284 290 283 281 289 291 296 293 295 294 292 289 283 276 270 267 264 261 263
267 260 260 260 260 259 261 259 258 258 257 256 87 95 256 243 200 207 201 197 199 205 218 229 241 241 131 101 251 243 259 234 226 238 238 242 244 245 238 236 243 244 245 252 250 255 242 259 246 256 266 258 255 293 271 275 273 270 291 275 274 277 273 270 268 269 279 295 295 296 292 289 289 291 293 299 302 300 293 290 286 287 288 290 284 283 276
262 258 255 255 253 254 255 255 254 252 250 205 109 107 174 262 224 193 197 190 174 182 226 233 250 293 295 242 231 239 247 255 238 230 242 238 238 242 239 226 240 238 254 246 243 246 251 248 264 254 250 241 247 255 259 267 267 268 266 271 270 273 277 285 291 291 296 301 299 297 295 292 294 294 283 281 280 280 282 281 282 282 283 282 276 274 276
261 257 252 250 252 246 243 245 245 246 238 178 179 177 179 202 235 135 162 153 145 172 201 234 250 207 233 263 221 239 240 246 240 235 225 211 237 230 242 214 227 216 219 239 241 259 232 250 249 251 250 241 245 254 249 253 259 264 275 272 270 269 272 278 277 278 280 281 288 289 282 279 278 277 287 294 286 281 277 278 278 279 278 276 274 269 265
259 254 252 254 254 255 252 254 254 245 219 218 218 235 252 236 122 137 153 139 148 190 187 217 213 242 244 238 329 294 176 69 199 192 251 195 234 194 238 206 219 239 224 242 229 248 214 238 235 246 238 242 248 249 250 250 259 268 269 270 273 274 274 271 272 273 274 275 272 272 276 278 280 278 275 276 275 278 278 277 278 277 277 277 276 275 271
250 247 251 256 254 251 250 248 251 266 16 62 235 228 222 233 231 179 89 92 106 345 78 172 213 207 234 14 6 249 139 194 231 185 256 216 187 194 227 225 172 210 189 217 215 240 241 247 248 254 252 237 235 254 251 251 257 261 260 262 268 273 271 271 270 272 269 270 266 261 265 269 273 278 283 285 285 285 284 284 286 283 279 277 276 275 275
251 248 244 242 244 246 249 273 300 159 210 196 226 239 198 205 216 179 152 133 98 216 150 272 162 94 291 307 225 262 126 158 235 189 209 266 170 190 220 228 239 237 237 211 241 234 255 234 250 253 239 244 240 247 262 264 260 262 263 262 262 268 271 271 272 292 314 325 319 316 314 312 306 300 296 296 294 294 292 288 284 283 282 280 280 279 278
250 244 252 265 344 299 92 121 150 145 214 220 215 185 196 208 206 200 181 179 195 194 178 212 159 212 197 248 243 267 124 220 245 61 216 222 351 232 215 207 249 225 234 237 251 237 243 242 250 258 258 258 245 251 258 258 259 259 263 262 263 273 305 330 350 342 326 325 323 319 312 308 311 314 315 308 305 302 302 299 296 288 283 283 282 283 282
257 259 142 110 106 75 180 208 179 192 204 199 188 109 94 89 33 65 44 72 281 63 200 161 151 207 193 226 144 265 139 260 141 96 256 155 212 279 99 206 239 259 228 235 236 246 247 243 253 260 253 255 264 258 265 272 272 269 272 304 354 20 359 345 343 343 338 325 321 316 319 321 314 306 305 304 303 306 304 298 296 295 292 289 288 286 283
94 101 101 48 92 146 217 260 206 224 181 161 131 86 351 13 133 16 151 203 216 133 232 181 234 235 123 165 239 212 127 264 53 195 301 231 170 273 186 227 233 256 250 243 235 223 250 215 237 243 251 246 256 261 258 258 284 343 30 34 8 352 341 331 340 344 345 332 325 322 325 320 311 305 301 299 299 295 290 289 288 287 285 282 281 280 279
132 103 56 94 136 182 197 241 255 141 111 53 42 84 353 329 123 206 206 192 249 213 199 193 226 213 220 225 249 226 203 221 309 97 212 265 144 287 244 239 257 230 257 260 256 155 252 230 244 248 258 250 255 260 316 4 38 57 19 13 356 331 327 322 330 328 306 276 277 287 282 288 296 299 300 296 291 287 283 283 281 279 278 278 278 277 274
32 94 147 151 203 220 85 334 111 117 87 112 339 112 168 334 133 242 69 80 250 260 191 226 210 218 204 215 222 250 140 172 218 234 216 288 147 200 270 179 271 251 261 247 257 220 258 266 254 258 263 249 240 55 17 347 344 12 1 339 335 325 314 309 305 295 285 287 285 282 284 283 285 285 288 288 289 291 291 288 283 280 276 274 272 272 270
105 91 105 192 210 155 198 140 51 43 100 116 74 5 102 225 205 211 129 230 224 245 209 220 162 214 220 223 222 242 226 101 275 72 121 202 233 86 245 227 256 276 257 261 254 144 232 256 255 251 254 279 351 359 343 345 338 333 340 336 329 326 322 317 312 305 303 299 293 289 284 279 274 272 270 270 274 275 276 279 282 283 282 281 276 272 270
192 163 173 116 102 90 88 24 78 110 52 148 153 202 186 205 61 347 187 188 228 215 268 152 256 214 231 183 202 187 268 171 139 155 142 261 237 165 222 249 293 211 227 228 85 106 131 258 257 260 257 57 320 354 355 340 332 331 329 339 332 329 328 322 316 311 304 294 293 291 289 284 278 274 272 277 277 275 274 275 275 275 274 275 276 277 274
104 101 104 102 109 113 109 142 205 134 183 178 128 238 153 197 206 177 225 246 324 198 259 0 257 265 300 60 302 222 207 179 173 206 163 218 352 65 190 252 217 247 236 36 45 250 246 253 255 259 67 32 7 340 337 323 314 315 312 324 327 329 321 318 317 310 308 305 295 291 288 289 287 285 285 283 280 279 276 272 271 271 274 274 273 270 269
117 73 55 10 104 226 129 215 142 78 203 192 170 197 182 210 257 96 233 262 166 259 310 337 311 63 250 4 159 71 37 309 158 69 288 287 119 208 178 215 225 247 43 15 201 245 252 252 263 334 69 331 338 342 338 334 334 320 319 321 327 319 322 316 315 314 310 309 290 287 293 291 294 295 295 289 281 276 279 282 279 275 273 272 274 273 272
116 59 74 52 220 236 101 236 27 145 200 208 187 229 169 211 209 174 206 25 47 222 359 30 339 71 194 263 54 293 230 242 10 110 240 143 177 234 153 251 245 337 185 253 248 254 262 255 85 45 359 346 332 332 328 327 324 324 313 314 319 326 323 322 316 315 311 311 308 310 307 304 296 289 289 289 288 274 263 270 277 283 279 275 272 274 274
130 165 156 152 220 237 148 232 77 355 275 206 220 180 185 217 183 183 41 3 266 357 8 341 325 278 254 253 173 243 29 103 335 232 201 165 165 244 209 237 64 329 255 239 251 252 252 266 48 346 343 326 325 321 326 317 321 317 321 315 319 321 318 312 312 309 305 308 308 309 300 297 296 292 292 295 288 276 268 267 273 275 278 279 276 275 278
93 55 98 139 146 225 78 184 227 201 199 191 128 11 328 58 74 95 70 357 29 317 300 275 230 245 236 293 324 314 87 95 190 252 80 306 215 265 315 210 256 222 251 252 249 253 263 77 336 340 328 322 321 320 316 317 318 319 313 310 309 311 312 310 308 307 306 301 298 299 298 294 290 286 281 281 285 289 287 295 299 297 288 279 289 313 334
158 225 99 171 225 144 192 240 130 84 27 54 343 325 348 164 104 51 3 351 301 307 332 341 7 17 270 263 90 234 265 188 49 274 177 234 306 24 297 233 235 244 223 242 254 359 24 359 336 325 321 322 315 316 317 319 319 317 315 313 311 311 313 312 310 308 309 306 301 301 299 299 295 291 289 295 303 315 323 315 314 314 313 317 329 2 39
141 139 162 205 205 171 179 86 108 126 348 332 4 43 25 62 65 17 334 342 354 333 299 175 322 58 256 121 186 211 243 168 206 240 143 225 172 219 187 237 228 248 236 322 310 39 318 330 312 313 309 312 312 311 307 309 311 312 315 312 312 310 311 309 309 308 308 303 302 303 305 301 298 293 295 306 308 315 327 331 337 346 354 358 9 29 45
123 293 160 81 354 330 141 33 50 284 303 10 34 42 23 53 56 16 9 345 339 310 260 216 237 229 272 82 257 194 236 196 198 250 191 227 219 245 218 254 235 253 256 59 309 317 315 316 318 310 311 310 308 310 311 312 312 307 305 304 303 306 306 309 308 309 308 309 310 308 306 304 300 301 307 314 316 318 338 358 356 355 2 13 30 42 52
204 61 58 12 249 245 111 207 204 202 190 132 32 18 17 31 21 316 359 341 315 315 67 142 161 190 248 213 236 239 240 59 84 219 205 231 194 207 219 244 262 70 276 293 293 299 308 310 310 308 309 309 310 307 308 306 307 305 304 303 306 309 308 306 305 306 307 309 312 315 311 306 306 310 316 328 334 350 15 12 2 357 4 21 28 33 42
63 126 91 47 45 33 41 94 61 70 61 81 78 355 6 12 348 317 327 320 306 144 143 19 336 201 209 228 248 323 345 324 243 240 243 241 49 237 282 336 331 307 321 315 304 300 295 296 293 297 300 302 307 310 308 305 303 303 306 310 312 310 310 310 309 311 311 311 315 318 317 317 319 324 332 349 5 13 17 10 2 1 15 23 33 44 58